Salmon, ID

5:30 PM MDT on August 19, 2019 (GMT -0600)
Lemhi County

Weather History for KSMN - July, 2019

Change the Weather History Date:

Monday, July 15, 2019

  Actual Average Record
Temperature  
Mean Temperature 70 °F -  
Max Temperature 82 °F 83 °F 98 °F (1974)
Min Temperature 59 °F 49 °F 41 °F (1983)
Cooling Degree Days 6    
Growing Degree Days 20 (Base 50)    
Moisture  
Dew Point 52 °F    
Average Humidity 58    
Maximum Humidity 82    
Minimum Humidity 29    
Precipitation  
Precipitation 0.10 in - - ()
Sea Level Pressure  
Sea Level Pressure 29.97 in    
Wind  
Wind Speed 4 mph (NW)    
Max Wind Speed 16 mph    
Max Gust Speed 24 mph    
Visibility 10 miles    
Events Rain , Thunderstorm    
Averages and records for this station are not official NWS values.
T = Trace of Precipitation, MM = Missing Value Source: NWS Daily Summary

Daily Weather History Graph

Daily Weather History Graph

Search for Another Location

Airport or City:

Astronomy

Jul. 15, 2019 Rise Set
Actual Time 6:02 AM MDT 9:19 PM MDT
Civil Twilight 5:26 AM MDT 9:55 PM MDT
Nautical Twilight 4:39 AM MDT 10:42 PM MDT
Astronomical Twilight 3:40 AM MDT 11:40 PM MDT
Moon 8:41 PM MDT (7/15) 4:52 AM MDT (7/15)
Length of Visible Light 16h 29m
Length of Day
15h 17m
Waxing Gibbous, 99% of the Moon is Illuminated
Jul 15
Waxing Gibbous
Jul 16
Full
Jul 24
Last Quarter
Jul 31
New
Aug 7
First Quarter

Hourly Weather History & Observations

Time (MDT) Temp. Dew Point Humidity Pressure Visibility Wind Dir Wind Speed Gust Speed Precip Events Conditions
12:56 AM 68.0 °F 51.1 °F 55% 29.98 in 10.0 mi Calm Calm - N/A   Partly Cloudy
1:56 AM 70.0 °F 50.0 °F 49% 29.97 in 10.0 mi North 5.8 mph - N/A   Partly Cloudy
2:56 AM 68.0 °F 48.0 °F 49% 29.97 in 10.0 mi Calm Calm - N/A   Mostly Cloudy
3:56 AM 64.0 °F 48.9 °F 58% 29.97 in 10.0 mi Calm Calm - N/A   Clear
4:56 AM 61.0 °F 51.1 °F 70% 29.99 in 10.0 mi Calm Calm - N/A   Mostly Cloudy
5:56 AM 60.1 °F 50.0 °F 69% 29.99 in 10.0 mi South 4.6 mph - N/A   Mostly Cloudy
6:56 AM 62.1 °F 52.0 °F 70% 30.00 in 10.0 mi ENE 6.9 mph - 0.00 in Rain Light Rain
7:56 AM 64.0 °F 52.0 °F 65% 30.02 in 10.0 mi Calm Calm - 0.00 in   Mostly Cloudy
8:56 AM 66.9 °F 51.1 °F 57% 30.02 in 10.0 mi WNW 3.5 mph - N/A   Clear
9:56 AM 71.1 °F 50.0 °F 47% 29.99 in 10.0 mi Calm Calm - N/A   Clear
10:56 AM 75.0 °F 51.1 °F 43% 29.97 in 10.0 mi North 6.9 mph - N/A   Clear
11:47 AM 77.0 °F 48.2 °F 36% 30.05 in 10.0 mi North 8.1 mph - N/A   Partly Cloudy
11:56 AM 78.1 °F 48.0 °F 35% 29.93 in 10.0 mi North 6.9 mph - N/A   Clear
12:56 PM 78.1 °F 50.0 °F 37% 29.92 in 10.0 mi Calm Calm - 0.00 in Rain Light Rain
1:42 PM 77.0 °F 46.4 °F 34% 30.00 in 10.0 mi North 5.8 mph - 0.00 in Thunderstorm Scattered Clouds
1:56 PM 75.9 °F 48.9 °F 38% 29.89 in 10.0 mi NNE 13.8 mph 18.4 mph 0.00 in   Mostly Cloudy
2:56 PM 77.0 °F 48.9 °F 37% 29.87 in 10.0 mi North 11.5 mph - N/A   Mostly Cloudy
3:56 PM 78.1 °F 46.9 °F 33% 29.88 in 10.0 mi Variable 3.5 mph 19.6 mph 0.00 in Rain Light Rain
4:56 PM 82.0 °F 46.9 °F 29% 29.83 in 10.0 mi NNW 10.4 mph - 0.00 in   Scattered Clouds
5:12 PM 80.6 °F 46.4 °F 30% 29.94 in 10.0 mi North 11.5 mph - N/A Thunderstorm Mostly Cloudy
5:56 PM 64.9 °F 55.0 °F 70% 29.94 in 7.0 mi NW 16.1 mph 24.2 mph 0.08 in Rain , Thunderstorm Heavy Thunderstorms and Rain
6:03 PM 64.4 °F 55.4 °F 73% 30.00 in 10.0 mi Variable 5.8 mph 24.2 mph 0.01 in Rain , Thunderstorm Light Rain
6:18 PM 66.2 °F 57.2 °F 73% 30.01 in 10.0 mi WSW 6.9 mph - 0.01 in   Mostly Cloudy
6:39 PM 66.2 °F 55.4 °F 68% 30.01 in 10.0 mi Calm Calm - 0.01 in Rain , Thunderstorm Light Rain
6:54 PM 66.2 °F 55.4 °F 68% 30.01 in 10.0 mi SSW 5.8 mph - 0.01 in   Partly Cloudy
6:56 PM 66.9 °F 55.0 °F 66% 29.94 in 10.0 mi South 4.6 mph - 0.01 in   Partly Cloudy
7:56 PM 66.9 °F 59.0 °F 76% 29.95 in 10.0 mi SSE 5.8 mph - N/A   Scattered Clouds
8:56 PM 64.9 °F 57.9 °F 78% 29.95 in 10.0 mi South 6.9 mph - N/A   Clear
9:56 PM 64.0 °F 55.9 °F 75% 29.95 in 10.0 mi South 4.6 mph - N/A   Clear
10:56 PM 63.0 °F 55.0 °F 75% 29.95 in 10.0 mi NW 3.5 mph - N/A Thunderstorm Scattered Clouds
11:18 PM 60.8 °F 55.4 °F 82% 30.05 in 10.0 mi West 9.2 mph - 0.01 in Rain , Thunderstorm Light Rain
11:32 PM 59.0 °F 53.6 °F 82% 30.03 in 10.0 mi ENE 8.1 mph - 0.01 in Rain Light Rain
11:56 PM 60.1 °F 54.0 °F 80% 29.98 in 10.0 mi WNW 3.5 mph - 0.01 in Thunderstorm Mostly Cloudy